Simultaneous Nadir Overpasses (SNOs) Predictions

Prediction of SNOs between METOP-B and NOAA-19 Satellite Orbit:

Table of predicted SNOs for the next 14.0 days since TLE Epoch: 11/15/2013
Index Date (METOP-B) Time (METOP-B) Lat,Lon (METOP-B) SZA (METOP-B ) Date (NOAA-19) Time (NOAA-19) Lat,Lon (NOAA-19) SZA (NOAA-19 ) Distance(km) Time Diff (sec)
1 11/22/2013 03:14:04 -73.71, -54.14 86.23 11/22/2013 03:12:50 -73.68, -54.65 86.25 16.11 74
2 11/22/2013 04:04:46 73.58, 112.89 93.65 11/22/2013 04:03:45 73.56, 112.91 93.63 2.57 61
3 11/22/2013 04:55:29 -73.55, -79.87 86.38 11/22/2013 04:54:51 -73.53, -79.79 86.40 3.33 38
4 11/22/2013 05:46:08 73.56, 87.51 93.65 11/22/2013 05:45:49 73.55, 87.42 93.64 3.26 19
5 11/22/2013 06:36:51 -73.53,-105.25 86.38 11/22/2013 06:36:55 -73.52,-105.28 86.39 1.94 4
6
